EDT,Max TemperatureF,Mean TemperatureF,Min TemperatureF,Max Dew PointF,MeanDew PointF,Min DewpointF,Max Humidity, Mean Humidity, Min Humidity, Max Sea Level PressureIn, Mean Sea Level PressureIn, Min Sea Level PressureIn, Max VisibilityMiles, Mean VisibilityMiles, Min VisibilityMiles, Max Wind SpeedMPH, Mean Wind SpeedMPH, Max Gust SpeedMPH,PrecipitationIn, CloudCover, Events, WindDirDegrees
2013-7-1,81,72,63,68,63,58,93,76,58,29.99,29.91,29.85,10,10,7,12,2,13,0.40,6,Rain,317
2013-7-2,80,72,63,65,63,61,93,74,54,30.16,30.06,29.99,10,8,1,15,4,23,0.01,5,Rain,167
2013-7-3,82,73,63,65,63,61,93,74,54,30.25,30.19,30.13,10,10,10,14,4,18,0.03,3,Rain,179
2013-7-4,86,75,64,66,64,61,100,76,51,30.28,30.22,30.17,10,10,10,13,5,22,T,1,,171
2013-7-5,85,75,65,69,65,62,93,72,51,30.24,30.21,30.16,10,10,7,15,4,20,0.28,3,Rain,203
2013-7-6,88,77,65,67,65,61,100,70,40,30.28,30.22,30.10,10,8,1,14,3,22,0.00,4,,194
2013-7-7,82,73,64,67,64,62,93,74,55,30.19,30.14,30.10,10,10,2,23,3,29,0.21,6,Rain,254
2013-7-8,80,71,62,66,63,61,93,78,62,30.24,30.19,30.15,10,10,6,13,3,16,0.24,6,Rain,244
2013-7-9,80,73,66,68,66,64,93,78,62,30.20,30.15,30.09,10,10,6,10,2,14,0.34,6,Rain,183
2013-7-10,85,75,65,69,65,60,93,74,55,30.12,30.05,29.93,10,10,8,22,3,32,0.06,6,Rain,230
2013-7-11,77,70,63,66,64,62,93,79,64,30.05,30.00,29.95,10,10,6,10,3,13,0.16,7,Rain,340
2013-7-12,76,68,60,63,59,57,97,77,57,30.15,30.05,29.99,10,9,4,9,2,17,0.01,7,Rain,329
2013-7-13,82,70,58,65,61,57,100,76,51,30.29,30.18,30.12,10,7,0,10,2,16,0.01,6,Fog-Rain,172
2013-7-14,86,75,63,65,62,60,93,69,45,30.36,30.30,30.25,10,10,10,15,5,23,0.00,1,,168
2013-7-15,87,73,59,67,62,57,100,73,46,30.43,30.38,30.31,10,7,1,9,2,13,0.00,2,,337
2013-7-16,89,76,62,70,65,61,100,78,55,30.42,30.37,30.29,10,8,0,17,3,24,0.04,4,Fog-Rain,299
2013-7-17,89,78,67,72,68,64,100,78,55,30.39,30.33,30.21,10,7,1,13,3,16,0.00,6,,329
2013-7-18,91,79,66,71,67,64,100,75,50,30.28,30.20,30.12,10,9,5,16,2,22,0.20,3,Rain,342
2013-7-19,89,78,67,71,67,64,93,73,52,30.17,30.10,29.97,10,7,1,16,3,23,T,4,Rain,220
2013-7-20,86,75,63,70,66,63,93,72,51,30.05,29.99,29.91,10,10,10,30,4,39,0.35,4,Rain,215
2013-7-21,82,72,62,68,64,61,100,77,54,30.07,30.01,29.97,10,10,2,13,1,17,0.10,4,Rain,186
2013-7-22,83,75,66,70,66,64,97,82,67,30.03,29.92,29.83,10,8,1,16,2,21,1.00,7,Rain,160
2013-7-23,81,73,65,67,65,62,93,76,58,29.88,29.83,29.78,10,10,4,16,5,22,0.35,6,Rain,287
2013-7-24,73,64,54,64,60,54,93,78,63,30.01,29.90,29.80,10,10,8,13,4,17,T,6,Rain,337
2013-7-25,76,65,53,57,54,53,100,73,46,30.14,30.05,29.99,10,7,1,13,3,15,0.00,4,,318
2013-7-26,81,66,51,60,54,50,100,70,40,30.17,30.13,30.06,10,6,0,10,1,12,0.00,3,Fog,332
2013-7-27,72,65,58,64,60,57,100,87,73,30.07,30.00,29.95,10,9,2,10,3,15,0.12,4,Rain,157
2013-7-28,77,67,56,61,58,52,93,72,50,30.11,29.99,29.92,10,10,5,16,5,21,0.18,5,Rain,285
2013-7-29,73,62,50,55,51,48,100,72,44,30.27,30.18,30.12,10,7,1,12,3,15,0.00,5,,254
2013-7-30,78,65,51,61,55,50,96,71,46,30.31,30.26,30.22,10,9,2,10,2,15,0.00,2,,335
2013-7-31,77,67,56,64,60,54,93,77,60,30.23,30.15,30.03,10,8,1,14,1,20,0.23,7,Rain,168